RH
36 34 33 33 36 40 41 41 41 40 35 32 29 28 29 32 35 39 42 44 48 50 52 55 62 69 73 76 80 94 84 75 50 40 41 37 40 41 41 44 49 61 69
46 44 43 44 43 44 46 47 51 51 51 46 44 44 44 43 44 44 48 49 52 58 63 65 74 81 83 87 90 98 87 84 56 48 46 39 38 39 44 49 57 64 72
35 38 40 38 37 40 43 46 48 52 56 57 57 57 55 53 54 56 56 61 70 72 74 77 83 88 86 88 88 94 93 82 63 59 55 45 42 43 48 52 62 68 74
24 25 26 27 28 31 35 38 43 51 56 58 61 64 68 66 64 67 72 77 71 74 86 73 79 85 85 94 82 99 88 73 66 67 53 50 49 49 48 59 67 68 75
23 22 23 23 24 23 24 27 32 36 40 45 50 51 58 64 67 64 69 73 76 76 81 79 70 96 77 86 90 97 84 76 81 65 51 52 51 49 52 61 72 72 77
23 22 22 22 22 23 22 23 23 27 34 38 46 47 49 51 58 62 62 62 70 58 71 86 68 76 98 96 87 90 89 83 71 65 54 57 52 47 55 70 71 79 67
25 25 25 24 22 22 23 24 27 31 36 39 37 40 44 41 42 44 48 50 57 63 64 64 70 89 77 99 91 92 92 80 84 71 63 60 51 55 72 67 73 86 67
26 26 27 27 26 27 26 26 27 28 29 30 32 33 35 36 38 44 48 48 51 58 60 60 73 67 69 88 98 92 84 89 89 71 63 54 55 67 71 75 75 91 69
26 27 28 29 30 30 30 31 31 32 32 33 34 35 38 43 44 45 48 53 58 62 64 67 69 67 82 84 85 88 93 96 74 67 58 57 64 72 73 72 89 87 72
24 25 27 29 30 30 30 31 32 34 35 39 40 41 42 43 45 48 51 56 56 60 69 73 74 76 81 90 95 94 88 82 76 59 52 60 73 74 76 83 86 95 85
24 25 25 26 27 29 30 32 33 36 39 40 41 43 43 43 48 55 57 59 63 65 72 76 79 87 93 98 96 94 89 78 65 56 65 74 78 77 83 85 93 95 87
28 28 29 30 30 32 34 36 39 41 42 43 45 47 48 49 52 55 57 57 64 68 71 77 81 81 84 83 86 85 81 75 69 69 75 82 86 80 83 90 95 96 86
33 34 34 34 35 36 38 39 41 44 45 46 48 48 51 55 57 60 62 64 67 69 71 73 77 80 82 84 74 73 78 69 63 63 74 82 82 83 91 94 97 90 87
38 38 39 39 40 40 40 39 40 43 46 47 48 49 52 56 58 60 62 63 67 69 70 74 77 74 71 70 75 82 75 64 64 73 82 87 87 92 95 98 97 89 93
39 40 40 40 41 41 42 42 43 44 46 47 50 51 53 57 57 59 61 64 66 67 70 73 73 70 69 73 79 73 71 68 65 75 86 92 96 96 97 98 93 92 93
41 40 39 40 40 41 42 45 47 47 48 49 51 53 55 56 57 60 62 66 67 69 70 72 73 73 74 73 63 55 58 68 79 86 90 90 92 92 91 92 87 91 92
41 40 40 40 41 42 44 45 45 46 48 51 53 54 57 58 59 62 64 64 66 68 68 70 68 65 63 66 68 67 65 62 76 79 80 86 86 85 85 84 86 85 85
43 43 42 42 42 43 43 43 44 45 45 46 47 49 49 51 52 54 55 56 58 59 57 57 56 55 53 54 57 57 60 71 77 78 76 78 79 80 82 84 84 84 81
45 45 43 42 42 42 41 41 42 41 41 41 41 42 43 45 46 46 46 46 48 50 51 52 53 54 56 56 59 65 71 73 75 77 77 79 80 82 83 83 84 86 89
48 46 44 45 44 42 41 40 41 40 40 39 39 39 39 40 41 42 44 47 49 50 52 56 58 60 62 64 67 68 69 71 74 74 75 77 82 81 81 82 83 85 88
50 47 44 41 40 40 42 41 41 42 41 41 40 41 40 41 42 42 42 43 47 49 49 49 51 54 57 57 58 62 65 65 69 72 72 73 76 78 78 77 78 80 83
52 49 46 45 43 42 42 42 42 42 42 43 44 45 44 43 42 43 45 47 48 49 49 49 49 49 49 52 54 53 52 53 55 55 52 48 47 47 50 55 57 62 68
54 53 51 50 49 48 49 49 49 48 47 46 45 44 43 44 45 45 44 43 42 42 44 45 45 45 45 44 44 44 42 41 40 40 39 41 44 48 49 49 52 57 59
59 60 59 58 57 55 54 53 52 50 48 46 45 45 44 44 44 44 42 41 40 39 38 38 38 39 39 42 41 40 40 40 39 39 41 43 47 50 53 53 56 60 62
69 66 64 62 58 56 54 53 52 50 49 48 48 47 47 47 46 44 42 41 40 38 37 36 37 37 38 41 42 43 41 42 43 46 49 51 52 57 61 62 63 63 64
68 66 64 62 61 59 58 56 55 55 55 54 54 53 50 49 48 46 44 41 39 37 36 37 38 39 40 41 42 45 48 50 51 53 55 59 63 67 70 70 67 66 67